Regional Weather Roundup
Issued by NWS Little Rock, AR

Home | Current Version | Previous Version | Graphics & Text | Print | Product List | Glossary On
Versions: 1 2 3 4 5 6 7 8 9 10 11 12 13 14 15 16 17 18 19 20 21 22 23 24 25 26 27 28 29 30 31 32 33 34 35 36 37 38 39 40 41 42 43 44 45 46 47 48 49 50
286
ASUS44 KLZK 271705
RWRLZK

WEATHER ROUNDUP FOR ARKANSAS
NATIONAL WEATHER SERVICE LITTLE ROCK AR
1200 PM CDT WED JUL 27 2016

NOTE: "FAIR" INDICATES FEW OR NO CLOUDS BELOW 12,000 FEET WITH NO
SIGNIFICANT WEATHER AND/OR OBSTRUCTIONS TO VISIBILITY.

ARZ001-003-010-029-271800-
NORTHWEST ARKANSAS

CITY           SKY/WX    TMP DP  RH WIND       PRES   REMARKS
FAYETTEVILLE   MOSUNNY   83  76  79 VRB5      30.01S HX  91
FORT SMITH     CLOUDY    87  72  60 NW5       29.97S HX  93
HARRISON       SUNNY     84  74  71 VRB7      30.02F HX  91
BENTONVILLE    MOSUNNY   84  72  65 SW5       30.02F HX  89
ROGERS         PTSUNNY   86  74  67 VRB5      30.02F HX  94
SILOAM SPGS    CLOUDY    82  66  57 W7        30.03S HX  85
HIGHFILL       MOSUNNY   85  76  74 VRB3      30.01F HX  94
SPRINGDALE     PTSUNNY   84  73  70 SW9       30.04  HX  91
$$

ARZ004-005-016-271800-
NORTH CENTRAL ARKANSAS

CITY           SKY/WX    TMP DP  RH WIND       PRES   REMARKS
BATESVILLE     MOSUNNY   91  75  59 E3        29.97F HX 102
FLIPPIN        CLOUDY    82  73  74 N3        29.98F HX  88
MTN HOME       CLOUDY    84  76  76 CALM      30.00F HX  93
$$

ARZ040-041-271800-
WEST CENTRAL ARKANSAS

CITY           SKY/WX    TMP DP  RH WIND       PRES   REMARKS
MENA           MOSUNNY   91  75  59 S3        29.98F HX 102
MOUNT IDA      MOSUNNY   92  73  53 SE7       29.95F HX 100
$$

ARZ009-017-025-026-028-271800-
NORTHEAST ARKANSAS

CITY           SKY/WX    TMP DP  RH WIND       PRES   REMARKS
CORNING          N/A     88  77  70 NE6       29.99F HX 100
JONESBORO      CLOUDY    88  77  69 E7        29.96F HX 100
NEWPORT        CLOUDY    90  79  70 NE3       29.97F HX 106
WALNUT RIDGE   CLOUDY    90  75  62 NE6       29.96F HX 100
BLYTHEVILLE    CLOUDY    88  76  67 SE5       29.99R HX  99
NW BLYTHEVILLE PTSUNNY   88  75  66 S3        29.98S HX  97
$$

ARZ022-023-033-042-044-271800-
CENTRAL ARKANSAS

CITY           SKY/WX    TMP DP  RH WIND       PRES   REMARKS
LITTLE ROCK    PTSUNNY   89  76  65 W5        29.96S HX 100
N LITTLE ROCK    N/A     87  77  74 S5        29.93S HX  98
JACKSONVILLE   CLOUDY    91  78  65 SE8       29.94F HX 105
SEARCY         SUNNY     95  74  50 E8        29.96F HX 105
HOT SPRINGS    CLOUDY    81  74  79 SE5       29.99S HX  86
RUSSELLVILLE   CLOUDY    89  75  63 CALM      29.95F HX  99
$$

ARZ036-271800-
EAST ARKANSAS

CITY           SKY/WX    TMP DP  RH WIND       PRES   REMARKS
WEST MEMPHIS   CLOUDY    86  77  74 SE3       29.96S HX  97
$$

ARZ050-053-066-070-073-271800-
SOUTHWEST ARKANSAS

CITY           SKY/WX    TMP DP  RH WIND       PRES   REMARKS
ARKADELPHIA    LGT RAIN  75  74  96 S5        29.99F
CAMDEN         RAIN      75  72  88 CALM      30.00R
TEXARKANA      CLOUDY    88  75  65 SE6       29.98R THUNDER HX  97
EL DORADO      LGT RAIN  77  74  90 CALM      30.00F
DE QUEEN       MOSUNNY   94  73  50 NW3       29.92F HX 103
$$

ARZ056-057-069-271800-
SOUTHEAST ARKANSAS

CITY           SKY/WX    TMP DP  RH WIND       PRES   REMARKS
PINE BLUFF     CLOUDY    81  75  82 W7        29.98R HX  87
STUTTGART      CLOUDY    88  75  66 SW8       29.96S HX  97
MONTICELLO     LGT RAIN  77  75  94 W6        29.98F FOG

$$






USA.gov is the U.S. government's official web portal to all federal, state and local government web resources and services.